Location: ??????
(41.3164°N, 22.6615°E)
Time: 07:40:10
(UTC+00:00)

CUBESAT XI-V - Pass Details

Date: 07 July 2022
Orbit: 668 x 690 km, 98.1° (Epoch: 15 August)

Event Time Altitude Azimuth Distance (km) Brightness Sun altitude
Exits shadow 01:38:19 13° 261° (W) 1,926 ? -13.2°
Maximum altitude 01:38:54 13° 270° (W) 1,911 ? -13.1°
Drops below altitude 10° 01:40:59 10° 297° (WNW) 2,103 ? -12.8°
Sets 01:44:29 0° 325° (NW) 3,020 ? -12.4°
